Find Starlink 32604

NORAD ID: 62070 Int'l Des: 2024-217 Owner: SPXS Country: US Constellation: starlink operational
LEOCIRCULAR

Live-Position

3D-Globus wird geladen...

Über Starlink 32604

Beschreibung wird geladen...

Nächste Überflüge

Passes for default location (London). Set your location on the main map for personalized predictions.

Höhenverlauf

Loading altitude history...

Zweizeiliger Elementsatz

1 62070U 24217P 26107.13418044 .00006896 00000-0 24475-3 0 9996
2 62070 53.1614 15.5916 0001378 100.1277 259.9880 15.30197474 79302
Epoch: 17. Apr. 2026 • Age: 11 hours

Aktueller Status

Höhe 479.2 km
Geschwindigkeit 7.63 km/s
Subsatellitenpunkt 45.92°N, 76.83°E
Startdatum 24. Nov. 2024
Alter 1.3 years
Typ internet

Technische Details

Klassifizierung Payload
Masse 730.00 kg
Trockenmasse 700.00 kg
Gesamtmasse 730.00 kg
Länge 0.30 m
Durchmesser 4.10 m
Spannweite 29.00 m
Form Box + pan
Hersteller SPXS
Bus-Typ Starlink V2M
Phasenstatus In Orbit
Besitzer/Staat SPXS/US

Most Searched